Dewpoint
-4 1 4 7 7 9 10 10 7 8 11 11 11 12 10 11 10 11 10 10 10 8 10 -0 -0 2 0 -2 -3 1 3 4
-0 4 6 8 8 9 9 8 6 9 10 11 11 11 10 11 11 10 10 10 10 9 8 1 2 3 2 1 5 7 8 7
2 6 8 8 7 9 9 5 6 8 10 10 11 11 11 10 10 10 10 9 9 9 8 3 2 4 3 4 7 8 8 8
6 8 8 7 8 8 7 4 6 8 10 10 11 11 11 11 11 11 11 10 9 9 8 7 4 5 5 5 8 9 8 7
4 8 8 7 8 8 4 5 5 9 9 9 9 9 10 11 11 10 11 10 9 8 8 8 9 6 6 6 8 9 8 7
5 6 7 7 8 8 4 6 7 8 9 9 9 9 9 10 11 11 10 10 10 9 9 8 9 8 7 7 7 9 8 6
3 8 8 8 8 8 4 6 7 8 9 10 10 10 9 10 9 10 11 10 11 10 8 8 9 8 8 8 9 8 8 6
7 9 8 8 8 7 4 6 7 10 10 10 10 9 9 10 10 10 10 10 10 10 10 10 9 9 8 9 10 9 8 7
6 8 8 8 8 7 4 5 7 9 10 9 9 9 9 10 10 10 10 10 10 10 10 9 10 9 9 9 9 9 8 6
8 9 8 8 8 5 3 3 6 8 10 9 10 8 8 9 10 10 10 10 10 10 10 9 10 9 9 9 9 8 8 7
10 8 7 8 8 5 4 3 3 5 10 9 9 9 9 9 10 10 10 10 10 10 10 9 9 9 8 8 7 6 6 6
9 9 8 8 8 7 3 4 5 4 9 10 9 9 9 9 9 9 9 10 10 9 9 9 9 9 8 8 8 7 7 7
5 8 10 7 7 7 4 2 4 2 4 8 10 9 9 8 9 9 9 9 9 10 10 9 9 9 8 8 7 7 7 6
2 8 8 10 7 7 6 1 2 1 3 7 9 9 10 9 9 9 9 9 9 8 8 9 8 7 7 7 7 6 6 6
1 5 9 9 10 7 7 3 0 2 4 6 8 9 9 9 8 9 9 9 8 8 8 8 7 7 7 6 6 5 6 7
2 6 8 9 9 9 8 6 1 3 4 5 6 8 9 8 8 8 8 8 7 7 7 7 8 8 7 6 6 6 6 7
6 5 7 8 9 9 9 9 6 3 5 6 7 7 8 8 8 8 7 8 7 7 7 7 8 8 8 8 8 8 8 8
6 7 6 4 5 4 9 10 9 7 5 7 7 7 8 8 8 8 8 7 7 7 8 8 9 9 8 8 8 8 8 8
5 5 6 6 3 6 9 9 10 9 8 7 8 8 8 9 9 9 8 8 8 8 9 9 9 9 9 8 9 8 8 7
Wind_Speed
39 37 34 31 27 23 19 16 13 14 15 15 15 15 18 25 29 43 48 50 50 49 47 48 47 45 43 41 40 37 33 28
32 39 37 32 27 25 20 18 17 19 19 19 18 17 24 34 37 45 45 46 47 45 47 49 49 46 45 43 39 34 30 26
29 42 39 34 30 25 22 19 19 20 20 20 22 22 23 32 40 44 45 46 47 45 45 48 50 48 46 44 41 38 34 30
36 44 42 36 31 27 23 21 21 21 21 22 24 25 27 30 37 44 48 51 48 48 44 48 50 50 51 47 43 40 40 33
36 47 43 37 33 27 22 22 22 21 22 25 25 28 33 32 35 44 52 49 51 50 49 47 51 52 50 49 46 43 42 37
38 51 48 41 33 28 24 24 23 22 23 22 22 24 27 35 39 38 53 54 54 54 53 52 51 49 49 49 49 45 40 40
38 45 48 40 33 28 25 25 24 24 22 22 21 19 17 25 27 46 34 58 59 57 56 52 50 50 48 46 44 45 43 36
36 44 47 40 36 31 28 26 25 25 22 21 19 14 14 15 17 29 44 40 55 58 52 51 50 48 46 48 47 41 30 33
44 49 50 43 37 33 30 27 25 25 24 23 18 15 10 14 13 24 29 42 53 54 53 49 50 47 45 44 43 38 37 35
42 46 45 42 38 34 30 27 25 23 24 25 24 18 12 9 12 24 23 34 38 46 55 47 47 44 43 43 41 36 33 31
23 42 45 41 36 32 29 26 24 23 24 26 24 23 17 12 10 17 21 28 39 48 53 54 46 44 44 40 35 33 32 34
20 27 43 38 33 31 28 27 26 24 26 27 26 25 23 18 14 13 16 25 34 39 43 49 54 48 33 41 43 40 35 34
11 22 23 38 33 32 29 28 28 24 24 27 30 26 26 23 20 18 18 18 22 26 36 32 34 39 38 38 36 35 33 33
22 17 27 34 35 33 30 29 30 25 23 27 29 30 28 26 23 23 22 21 22 23 25 29 30 34 34 35 33 33 31 29
15 9 19 30 29 34 31 30 30 27 26 28 29 29 28 26 23 24 23 23 22 21 22 24 28 31 32 34 32 33 31 31
19 9 16 23 27 30 31 30 30 29 28 29 29 28 27 25 23 24 24 24 21 18 19 20 23 27 30 32 32 34 36 36
19 1 8 18 17 27 31 30 31 31 30 28 30 29 29 27 24 22 23 24 23 21 23 25 27 29 27 27 27 30 31 31
23 24 12 12 11 13 30 32 31 32 32 29 28 28 26 29 25 22 23 27 31 29 29 30 29 29 27 25 24 26 28 30
23 25 25 14 16 20 24 27 30 31 33 32 28 27 28 28 29 31 29 29 29 30 31 30 30 29 28 27 27 27 27 26
Wind_Direction
212 213 212 216 224 229 228 235 224 205 199 198 204 213 184 183 184 177 184 187 197 198 196 192 188 185 183 181 182 185 191 187
218 205 206 208 215 218 222 230 212 202 199 196 198 194 183 184 184 177 181 191 199 197 198 194 190 189 188 187 186 187 188 193
207 197 200 205 214 214 218 219 209 197 202 201 195 193 195 189 183 186 187 193 198 201 200 196 195 191 192 190 190 188 193 197
193 193 195 202 210 215 212 210 203 192 194 199 200 201 198 201 203 203 202 201 198 202 202 199 198 198 196 194 193 192 193 195
200 196 195 203 210 212 208 199 198 195 197 204 207 206 205 201 208 203 202 202 202 203 203 204 202 202 201 199 198 196 199 193
210 204 202 203 206 208 202 194 192 195 202 208 206 211 217 216 211 213 210 208 205 206 204 203 204 204 203 202 200 200 202 197
231 204 199 198 201 203 201 192 193 196 202 205 209 219 227 219 222 221 210 212 209 206 206 207 204 206 204 203 201 199 202 204
207 201 197 195 199 200 198 194 193 198 203 210 210 224 231 219 225 232 221 202 204 208 207 202 202 206 205 204 204 200 199 199
209 204 195 192 196 196 196 195 193 196 202 205 210 215 219 232 245 227 207 201 198 205 199 201 202 203 204 208 203 199 209 220
192 191 192 193 195 196 195 194 192 193 201 196 202 202 213 221 217 211 207 197 200 206 199 191 192 194 199 198 197 199 210 223
191 190 193 194 195 196 193 198 197 192 196 198 201 201 201 202 193 208 214 210 208 205 206 201 195 197 196 195 211 221 229 226
220 205 196 192 193 195 194 198 199 195 194 198 198 199 199 194 193 203 200 207 207 209 205 206 203 204 211 221 229 233 226 225
298 229 220 192 193 194 197 201 200 198 195 193 199 196 197 202 207 204 204 204 205 208 213 206 202 210 218 223 224 217 224 231
358 222 226 216 195 196 198 203 202 194 196 195 196 203 204 206 209 205 202 200 204 206 206 210 207 213 217 215 222 224 234 239
317 332 227 225 221 200 200 201 204 195 195 198 197 203 207 206 202 198 197 196 195 195 200 205 218 224 224 224 229 229 240 249
335 243 228 224 223 219 210 204 206 199 198 198 199 203 205 205 202 194 195 195 196 198 200 208 217 223 226 230 234 240 245 249
20 29 233 248 228 232 226 219 207 203 202 202 200 200 201 201 199 194 197 199 199 202 207 215 218 225 227 232 235 239 241 244
13 12 346 220 231 248 231 227 223 209 206 205 205 206 202 199 197 196 196 202 208 211 215 217 221 224 226 229 230 234 237 240
5 6 3 355 206 215 219 223 226 222 213 207 205 206 205 200 198 202 202 202 203 208 214 217 221 223 225 227 231 237 237 230
Height
1409 1412 1416 1419 1421 1424 1428 1429 1428 1432 1435 1439 1442 1443 1446 1446 1447 1452 1460 1468 1476 1481 1490 1494 1501 1508 1513 1519 1526 1530 1535 1539
1405 1407 1410 1415 1419 1421 1424 1425 1426 1428 1432 1437 1440 1442 1445 1448 1449 1454 1459 1466 1473 1481 1487 1491 1497 1503 1509 1516 1522 1527 1533 1538
1399 1403 1405 1409 1413 1417 1420 1421 1422 1425 1430 1434 1438 1441 1445 1449 1452 1455 1460 1464 1470 1477 1483 1488 1494 1500 1508 1512 1516 1522 1529 1534
1394 1397 1398 1404 1409 1412 1415 1416 1418 1422 1427 1431 1436 1440 1444 1448 1451 1455 1458 1461 1466 1471 1477 1484 1490 1496 1501 1507 1513 1516 1522 1529
1388 1392 1394 1399 1404 1408 1411 1412 1414 1419 1424 1427 1431 1435 1439 1442 1446 1449 1453 1458 1463 1468 1474 1479 1485 1492 1498 1503 1508 1513 1519 1523
1385 1382 1387 1392 1399 1403 1406 1409 1411 1415 1420 1424 1427 1431 1435 1440 1443 1445 1446 1451 1458 1464 1470 1475 1481 1487 1494 1500 1504 1510 1515 1518
1378 1378 1382 1389 1396 1399 1402 1405 1407 1412 1417 1421 1424 1427 1429 1432 1436 1438 1437 1442 1450 1458 1463 1470 1476 1483 1489 1496 1502 1507 1510 1517
1371 1372 1376 1385 1390 1394 1397 1400 1404 1408 1414 1418 1421 1423 1425 1427 1430 1429 1432 1435 1441 1450 1458 1465 1472 1479 1485 1491 1496 1501 1507 1512
1359 1361 1369 1378 1385 1389 1392 1396 1400 1404 1410 1414 1418 1420 1422 1424 1424 1425 1427 1432 1436 1444 1454 1462 1468 1474 1481 1488 1492 1498 1504 1510
1352 1358 1367 1374 1380 1384 1387 1392 1396 1401 1406 1411 1415 1417 1419 1421 1423 1424 1427 1432 1437 1444 1452 1457 1463 1471 1478 1485 1491 1497 1502 1508
1362 1358 1363 1370 1376 1381 1385 1390 1393 1397 1403 1408 1412 1416 1419 1422 1423 1426 1428 1432 1436 1441 1448 1454 1462 1468 1474 1481 1489 1494 1499 1504
1367 1366 1361 1367 1373 1377 1382 1387 1391 1394 1399 1405 1410 1415 1418 1422 1424 1427 1430 1434 1437 1442 1447 1451 1458 1465 1475 1481 1486 1491 1496 1500
1367 1368 1371 1363 1368 1374 1379 1385 1389 1391 1395 1401 1407 1412 1416 1420 1423 1427 1431 1435 1439 1444 1450 1452 1460 1467 1473 1478 1482 1488 1492 1496
1369 1365 1367 1372 1365 1370 1375 1380 1385 1388 1392 1398 1403 1409 1413 1416 1420 1425 1430 1434 1439 1444 1449 1454 1460 1465 1470 1475 1481 1485 1489 1492
1371 1368 1368 1371 1374 1367 1371 1376 1381 1385 1390 1395 1400 1406 1410 1414 1418 1423 1428 1434 1438 1442 1447 1452 1458 1464 1468 1473 1478 1482 1486 1488
1372 1370 1367 1370 1370 1372 1373 1374 1378 1383 1387 1392 1396 1403 1410 1415 1418 1422 1428 1433 1438 1443 1447 1451 1456 1461 1465 1469 1474 1478 1480 1481
1370 1371 1368 1362 1364 1369 1374 1378 1375 1380 1385 1390 1395 1400 1407 1414 1419 1422 1426 1433 1438 1443 1446 1449 1453 1456 1461 1465 1469 1471 1473 1475
1375 1374 1372 1363 1361 1360 1368 1376 1381 1378 1382 1387 1393 1399 1404 1411 1418 1423 1425 1428 1433 1439 1442 1445 1448 1451 1455 1459 1464 1466 1468 1469
1375 1370 1365 1361 1359 1360 1364 1370 1377 1382 1381 1383 1390 1397 1402 1409 1414 1417 1421 1425 1429 1433 1437 1441 1444 1447 1450 1455 1458 1460 1461 1462